Total_Precipitation_Accumulation
0.14 0.34 0.73 1.18 2.06 2.22 1.74 1.03 0.76 0.58 0.58 0.63 0.64 0.64 0.76 0.98 1.40 2.12 1.96 1.38 0.90 0.83 0.98 1.36 1.80 1.80 1.88 1.79 1.61 1.62 1.59 1.58 1.60 1.63 1.72 1.83 1.90 1.93 2.01 2.09 2.20 2.55 2.72 2.51 2.44 2.50 2.51 2.43 2.56
0.30 0.57 0.98 1.63 2.29 2.04 1.52 0.88 0.64 0.49 0.48 0.49 0.45 0.52 0.71 0.88 0.79 1.13 1.55 1.33 0.84 0.76 0.79 0.93 1.46 1.79 1.98 1.84 1.68 1.60 1.58 1.61 1.55 1.70 1.70 1.74 1.94 2.08 2.16 2.07 2.04 2.18 2.28 2.27 2.34 2.30 2.45 2.41 2.36
0.48 0.75 1.15 1.68 1.45 1.29 1.08 0.71 0.56 0.42 0.50 0.66 0.57 0.52 0.76 1.04 0.91 1.13 1.26 0.91 0.74 0.71 0.75 1.00 1.56 1.78 1.77 1.74 1.62 1.49 1.55 1.67 1.71 1.69 1.62 1.69 1.83 2.00 2.04 2.03 2.01 1.99 2.14 2.31 2.38 2.21 2.39 2.35 2.23
0.56 0.86 1.11 1.08 0.64 0.50 0.54 0.56 0.53 0.54 0.73 0.84 0.72 0.72 0.89 0.95 0.94 1.01 0.87 0.74 0.70 0.80 0.83 1.15 1.58 1.66 1.71 1.66 1.58 1.51 1.61 1.75 1.76 1.70 1.67 1.79 1.85 1.90 1.81 1.83 1.90 1.87 2.12 2.36 2.44 2.37 2.39 2.28 2.15
0.61 0.91 1.18 0.70 0.35 0.34 0.34 0.38 0.53 0.60 0.85 0.91 0.69 0.92 1.30 1.27 0.94 0.85 0.72 0.71 0.72 0.86 1.05 1.29 1.51 1.56 1.70 1.57 1.55 1.59 1.61 1.64 1.68 1.66 1.57 1.68 1.79 1.85 1.79 1.78 1.86 1.92 2.25 2.42 2.41 2.46 2.45 2.41 2.44
0.73 0.82 0.80 0.50 0.28 0.24 0.26 0.33 0.49 0.62 0.80 0.87 0.76 1.15 1.71 1.71 1.33 1.12 0.99 1.10 1.05 1.17 1.33 1.49 1.74 1.82 1.76 1.65 1.67 1.69 1.64 1.59 1.63 1.64 1.59 1.53 1.64 1.71 1.69 1.70 1.75 1.92 2.27 2.42 2.41 2.42 2.34 2.39 2.45
0.64 0.58 0.46 0.27 0.19 0.20 0.24 0.30 0.50 0.65 0.81 1.02 1.00 1.31 1.82 2.16 1.75 1.42 1.33 1.39 1.47 1.50 1.57 1.57 1.70 1.78 1.79 1.83 1.87 1.78 1.67 1.67 1.74 1.74 1.61 1.55 1.62 1.56 1.47 1.53 1.73 1.87 2.20 2.40 2.44 2.36 2.29 2.27 2.39
0.37 0.33 0.28 0.16 0.11 0.16 0.20 0.28 0.43 0.62 0.87 1.00 1.01 1.23 1.57 1.75 1.61 1.62 1.72 1.80 1.97 1.90 1.79 1.62 1.54 1.63 1.55 1.55 1.72 1.71 1.68 1.79 1.87 1.88 1.79 1.83 1.82 1.62 1.62 1.65 1.80 1.88 2.18 2.21 2.18 2.18 2.20 2.21 2.35
0.25 0.26 0.20 0.13 0.07 0.12 0.19 0.34 0.48 0.52 0.69 1.02 1.24 1.11 1.03 1.21 1.59 1.89 2.35 2.43 2.51 2.31 1.90 1.58 1.54 1.66 1.61 1.47 1.50 1.91 2.01 2.05 2.14 2.29 2.32 2.49 2.51 2.04 2.05 1.80 1.99 2.22 2.25 2.21 2.33 2.37 2.44 2.62 2.58
0.16 0.17 0.13 0.08 0.05 0.08 0.19 0.41 0.56 0.69 1.04 1.41 1.57 1.36 1.14 1.21 1.77 2.17 2.47 2.67 2.34 2.34 2.28 2.01 1.77 1.69 1.71 1.56 1.75 2.40 2.39 2.39 2.63 2.89 2.79 2.92 2.74 2.45 1.86 1.93 2.51 2.64 2.63 2.72 3.04 3.22 2.93 2.83 2.73
0.08 0.08 0.06 0.06 0.05 0.09 0.22 0.25 0.33 0.61 1.26 1.67 1.86 1.50 1.27 1.43 1.90 2.44 2.65 2.57 2.29 2.27 2.19 2.27 2.10 1.95 1.93 2.09 2.04 2.31 2.65 2.79 2.87 2.84 2.83 2.93 2.44 2.09 2.00 2.45 3.01 2.92 2.89 3.02 3.27 3.44 2.82 2.94 3.55
0.06 0.05 0.04 0.04 0.05 0.07 0.14 0.22 0.37 0.68 1.18 1.45 1.34 1.20 1.24 1.50 1.82 2.46 2.86 2.74 2.58 2.52 2.42 2.70 2.62 2.57 2.60 2.42 2.40 2.27 2.32 2.38 2.40 2.52 2.40 2.52 2.61 2.55 2.67 2.95 3.03 3.06 3.21 3.51 3.32 3.46 3.37 3.57 3.58
0.05 0.05 0.05 0.05 0.06 0.09 0.12 0.23 0.35 0.60 0.87 0.94 0.86 1.03 1.49 1.62 1.96 2.62 3.18 3.13 3.06 2.94 3.00 3.16 3.21 3.35 3.18 2.96 2.82 2.34 2.38 2.26 2.16 2.19 2.17 2.37 2.73 2.89 3.19 3.05 3.07 2.78 2.89 3.23 3.55 3.56 3.74 4.03 3.98
0.05 0.06 0.07 0.08 0.11 0.11 0.15 0.26 0.42 0.80 0.80 0.74 0.90 1.22 1.60 2.03 2.23 2.69 3.40 3.61 3.52 3.52 3.75 3.72 3.72 3.78 3.62 3.25 3.02 2.74 2.40 2.41 2.19 2.17 2.24 2.70 3.00 3.16 3.44 3.30 3.16 2.81 2.80 3.13 3.46 3.50 3.81 3.95 4.07
0.07 0.10 0.16 0.17 0.16 0.17 0.24 0.63 0.76 0.87 0.83 0.83 1.07 1.33 1.83 2.45 2.71 2.98 3.45 3.80 3.93 4.20 4.39 4.58 4.45 4.15 4.23 3.88 3.15 2.65 2.37 2.23 2.35 2.47 2.53 2.85 3.03 3.38 3.68 3.60 3.18 2.90 2.96 3.15 3.13 3.29 3.79 3.74 3.69
0.12 0.16 0.35 0.30 0.18 0.22 0.36 0.93 0.94 0.91 0.94 1.03 1.25 1.61 1.97 2.46 2.59 2.84 3.29 3.84 4.35 4.74 5.16 5.35 4.93 4.82 4.85 4.54 3.96 3.38 3.05 2.89 2.92 2.93 2.78 2.59 2.79 2.97 3.35 3.13 2.72 2.78 2.97 3.15 3.18 3.15 3.53 3.72 3.76
0.17 0.22 0.34 0.33 0.21 0.21 0.34 0.80 0.79 0.65 0.99 1.40 1.65 1.80 1.96 2.14 2.30 2.51 2.91 3.60 4.41 5.00 5.73 6.13 6.33 5.82 5.43 4.88 4.47 3.95 3.65 3.47 3.21 2.95 2.71 2.40 2.15 2.09 2.47 2.46 2.41 2.44 2.71 2.77 2.45 2.70 3.03 3.28 3.47
0.16 0.23 0.30 0.39 0.28 0.27 0.42 0.72 0.81 0.70 0.99 1.34 1.41 1.66 1.76 1.78 2.00 2.41 2.93 3.47 4.35 5.10 5.83 6.24 6.49 5.96 5.25 4.96 4.94 4.61 4.03 3.59 3.21 2.88 2.69 2.29 2.13 1.90 2.16 2.24 2.10 2.05 2.27 2.38 2.52 2.84 2.92 2.82 2.91
0.09 0.19 0.29 0.31 0.26 0.36 0.55 0.81 0.94 0.92 0.96 1.10 1.22 1.40 1.41 1.45 1.74 2.22 2.86 3.55 4.37 5.47 6.13 6.28 6.04 5.35 4.86 4.46 4.22 3.96 3.71 3.43 2.94 2.56 2.32 2.22 2.10 2.06 2.36 2.18 2.23 2.06 2.11 2.18 2.25 2.51 2.62 2.42 2.60
0.07 0.15 0.24 0.23 0.20 0.24 0.50 0.90 1.03 1.04 1.10 1.08 1.15 1.21 1.13 1.27 1.62 2.22 2.99 3.80 4.50 5.03 5.39 5.48 5.12 4.37 3.89 3.66 3.61 3.35 3.15 2.84 2.62 2.40 2.37 2.05 1.99 2.03 1.97 2.16 2.01 1.94 2.19 2.16 2.24 2.47 2.46 2.22 2.39
0.09 0.12 0.19 0.23 0.21 0.25 0.50 1.08 1.30 1.19 1.14 1.10 1.00 0.97 1.06 1.29 1.82 2.57 3.38 4.16 4.49 4.52 4.30 4.00 3.82 3.44 3.33 3.29 3.11 2.90 2.87 2.62 2.46 2.25 2.17 1.87 1.69 1.70 1.79 1.83 1.79 1.90 1.82 2.02 2.19 2.31 2.53 2.51 2.28
0.11 0.10 0.09 0.12 0.18 0.44 0.59 1.17 1.36 1.32 1.24 1.08 1.06 1.07 1.17 1.44 1.96 2.65 3.19 3.44 3.59 3.52 3.23 3.05 2.98 2.92 2.87 2.79 2.70 2.42 2.30 2.29 2.15 2.06 2.07 1.94 1.72 1.69 1.71 1.70 1.83 1.87 1.74 2.03 1.79 1.97 2.35 2.55 2.33
0.07 0.07 0.09 0.14 0.26 0.48 0.63 0.98 1.34 1.32 1.39 0.97 0.83 0.93 1.03 1.29 1.57 1.74 1.94 2.10 2.24 2.27 2.43 2.50 2.64 2.77 2.68 2.62 2.63 2.58 2.30 2.27 2.23 2.23 2.31 2.16 1.93 1.72 1.53 1.66 1.88 1.94 1.81 1.86 1.91 2.16 2.18 2.24 2.24
0.06 0.08 0.16 0.28 0.46 0.85 0.85 1.01 1.36 1.35 1.25 0.87 0.67 0.69 0.89 1.03 1.05 1.10 1.18 1.30 1.52 1.58 1.80 2.02 2.13 2.28 2.45 2.49 2.35 2.29 2.25 2.34 2.39 2.35 2.17 1.97 1.82 1.71 1.59 1.72 2.00 1.99 1.97 1.93 1.93 1.98 2.01 2.19 2.31
0.07 0.14 0.40 0.78 1.13 1.18 0.74 0.86 1.27 1.20 0.89 0.63 0.55 0.53 0.57 0.71 0.84 0.96 1.07 1.17 1.38 1.34 1.42 1.65 1.72 1.72 1.87 1.93 1.91 1.98 2.14 2.21 2.09 2.00 1.93 1.79 1.55 1.56 1.66 1.74 1.94 1.93 1.95 1.86 2.06 2.10 2.02 2.16 2.21
0.09 0.14 0.29 0.52 0.62 0.80 0.85 1.34 1.52 0.95 0.64 0.50 0.48 0.47 0.47 0.62 0.74 0.83 0.83 0.91 1.05 1.05 1.19 1.29 1.38 1.44 1.51 1.62 1.74 1.73 1.88 1.89 1.80 1.91 1.77 1.64 1.42 1.32 1.42 1.56 1.61 1.69 1.72 1.70 2.14 2.02 2.06 2.17 2.06
0.09 0.10 0.15 0.21 0.31 0.66 1.09 1.42 1.36 0.87 0.72 0.57 0.49 0.49 0.50 0.47 0.60 0.67 0.61 0.62 0.76 0.89 1.01 1.09 1.16 1.29 1.33 1.48 1.56 1.54 1.64 1.75 1.81 1.83 1.70 1.52 1.54 1.39 1.43 1.51 1.73 1.87 1.92 1.97 2.22 2.13 2.10 2.27 2.08
0.11 0.13 0.16 0.20 0.31 0.60 0.99 1.46 1.72 1.27 0.76 0.62 0.57 0.54 0.58 0.49 0.53 0.57 0.56 0.52 0.61 0.77 1.03 1.09 1.11 1.26 1.29 1.38 1.40 1.27 1.46 1.60 1.77 1.74 1.64 1.58 1.60 1.55 1.67 1.75 1.90 2.02 1.99 2.00 2.19 2.13 2.21 2.32 2.21
0.15 0.13 0.16 0.19 0.23 0.39 0.82 1.13 0.99 0.98 0.78 0.79 0.72 0.63 0.61 0.55 0.58 0.55 0.54 0.54 0.52 0.65 0.87 0.94 1.09 1.21 1.27 1.34 1.44 1.51 1.52 1.47 1.60 1.66 1.63 1.67 1.71 1.68 1.76 1.86 1.99 2.02 2.09 2.20 2.29 2.10 2.19 2.31 2.47
0.16 0.16 0.17 0.21 0.23 0.26 0.41 0.64 0.64 0.83 0.79 0.77 0.82 0.75 0.67 0.51 0.49 0.52 0.55 0.59 0.57 0.59 0.71 0.86 1.04 1.21 1.26 1.34 1.48 1.58 1.74 1.70 1.65 1.64 1.69 1.78 1.92 1.99 1.94 2.01 2.06 1.94 1.98 2.20 2.27 2.24 2.26 2.29 2.32